User: anonymous   Login
Location: Newark
(48.2308°N, 120.8549°W)
Time: 16:22:05
(UTC+00:00)
Language:

Altair - Orbit

View from above orbital plane
View from above orbital plane
View from above satellite
View from above satellite

Ground track
Ground track

The orbit data is extracted from the following two-line orbital elements,

1    50U 60009B   20158.08576161 -.00000122  00000-0 -34869-3 0  9990
2    50  47.2289 156.5515 0114544 291.6505  67.2118 12.20112510669285
Epoch (UTC): 06 June 2020 02:03:29
Eccentricity: 0.0114544
inclination: 47.2289°
perigee height: 1501 km
apogee height: 1683 km
right ascension of ascending node: 156.5515°
argument of perigee: 291.6505°
revolutions per day: 12.20112510
mean anomaly at epoch: 67.2118°
orbit number at epoch: 66928

The dashed part of the orbit path shows where the satellite is in the earth's shadow,  

DLR